Mineral Wells, TX

7:52 PM CST on December 14, 2017 (GMT -0600)
Mineral Wells

Weather History for KMWL - December, 2013

Change the Weather History Date:

Sunday, December 8, 2013

  Actual Average Record
Temperature  
Mean Temperature 30 °F -  
Max Temperature 39 °F 57 °F 78 °F (2003)
Min Temperature 21 °F 35 °F 12 °F (2005)
Degree Days  
Heating Degree Days 35    
Moisture  
Dew Point 22 °F    
Average Humidity 83    
Maximum Humidity 100    
Minimum Humidity 60    
Precipitation  
Precipitation 0.00 in - - ()
Sea Level Pressure  
Sea Level Pressure 30.12 in    
Wind  
Wind Speed 4 mph (South)    
Max Wind Speed 13 mph    
Max Gust Speed -    
Visibility 8 miles    
Events Fog    
Averages and records for this station are not official NWS values.
T = Trace of Precipitation, MM = Missing Value Source: NWS Daily Summary

Daily Weather History Graph

Daily Weather History Graph

Search for Another Location

Airport or City:

Trip Planner

Search our weather history database for the weather conditions in past years. The results will help you decide how hot, cold, wet, or windy it might be!

Date:

Astronomy

Dec. 08, 2013 Rise Set
Actual Time 7:22 AM CST 5:26 PM CST
Civil Twilight 6:55 AM CST 5:53 PM CST
Nautical Twilight 6:24 AM CST 6:23 PM CST
Astronomical Twilight 5:54 AM CST 6:53 PM CST
Moon 11:58 AM CST (12/8) No Moon Set
Length of Visible Light 10h 57m
Length of Day
10h 03m
Waxing Crescent, 40% of the Moon is Illuminated
Dec 8
Waxing Crescent
Dec 9
First Quarter
Dec 17
Full
Dec 25
Last Quarter
Jan 1
New

Hourly Weather History & Observations

Time (CST) Temp. Windchill Dew Point Humidity Pressure Visibility Wind Dir Wind Speed Gust Speed Precip Events Conditions
12:16 AM 21.9 °F - 16.0 °F 78% 30.23 in 10.0 mi Calm Calm - N/A   Overcast
12:53 AM 21.9 °F - 16.0 °F 78% 30.25 in 10.0 mi Calm Calm - N/A   Overcast
1:53 AM 21.9 °F 17.2 °F 16.0 °F 78% 30.23 in 10.0 mi WSW 3.5 mph - N/A   Overcast
2:53 AM 21.9 °F - 17.1 °F 82% 30.22 in 10.0 mi Calm Calm - N/A   Overcast
3:53 AM 21.9 °F 15.7 °F 18.0 °F 85% 30.20 in 10.0 mi WNW 4.6 mph - N/A   Overcast
4:53 AM 21.9 °F 15.7 °F 19.0 °F 89% 30.19 in 9.0 mi NW 4.6 mph - N/A   Overcast
5:13 AM 21.9 °F - 19.0 °F 89% 30.15 in 10.0 mi Calm Calm - N/A   Overcast
5:36 AM 21.9 °F - 19.0 °F 89% 30.14 in 10.0 mi Calm Calm - N/A   Overcast
5:44 AM 21.9 °F - 19.0 °F 89% 30.14 in 10.0 mi Calm Calm - N/A   Overcast
5:53 AM 21.9 °F - 19.0 °F 89% 30.17 in 10.0 mi Calm Calm - N/A   Overcast
6:53 AM 23.0 °F 18.4 °F 19.9 °F 88% 30.17 in 10.0 mi South 3.5 mph - N/A   Overcast
7:26 AM 23.0 °F 18.4 °F 19.9 °F 88% 30.15 in 10.0 mi South 3.5 mph - N/A   Overcast
7:53 AM 23.0 °F 18.4 °F 19.9 °F 88% 30.18 in 10.0 mi South 3.5 mph - N/A   Overcast
8:53 AM 24.1 °F 18.2 °F 19.9 °F 84% 30.19 in 9.0 mi South 4.6 mph - N/A   Overcast
9:17 AM 24.1 °F 17.0 °F 19.9 °F 84% 30.15 in 10.0 mi SSW 5.8 mph - N/A   Overcast
9:53 AM 26.1 °F 19.4 °F 21.0 °F 81% 30.18 in 10.0 mi SSW 5.8 mph - N/A   Overcast
10:53 AM 28.0 °F 20.8 °F 21.9 °F 78% 30.15 in 10.0 mi SW 6.9 mph - N/A   Overcast
11:31 AM 30.0 °F 22.4 °F 21.9 °F 72% 30.11 in 10.0 mi South 8.1 mph - N/A   Scattered Clouds
11:53 AM 32.0 °F 25.6 °F 23.0 °F 69% 30.11 in 10.0 mi SSW 6.9 mph - N/A   Clear
12:53 PM 34.0 °F 28.0 °F 23.0 °F 64% 30.06 in 10.0 mi SSW 6.9 mph - N/A   Clear
1:53 PM 36.0 °F 30.3 °F 24.1 °F 62% 30.03 in 10.0 mi SW 6.9 mph - N/A   Clear
2:53 PM 37.0 °F 32.4 °F 25.0 °F 62% 30.02 in 10.0 mi South 5.8 mph - N/A   Clear
3:53 PM 39.0 °F 34.0 °F 26.1 °F 60% 30.02 in 10.0 mi South 6.9 mph - N/A   Clear
4:53 PM 39.0 °F 34.8 °F 26.1 °F 60% 30.02 in 10.0 mi SSE 5.8 mph - N/A   Clear
5:53 PM 33.1 °F 26.1 °F 26.1 °F 75% 30.03 in 10.0 mi SE 8.1 mph - N/A   Clear
6:53 PM 33.1 °F 26.9 °F 26.1 °F 75% 30.05 in 10.0 mi SSE 6.9 mph - N/A   Clear
7:53 PM 30.9 °F 23.5 °F 26.1 °F 82% 30.08 in 10.0 mi SE 8.1 mph - N/A   Clear
8:53 PM 28.9 °F 19.2 °F 27.0 °F 92% 30.09 in 10.0 mi SE 11.5 mph - N/A   Clear
9:09 PM 28.0 °F 17.5 °F 27.0 °F 96% 30.06 in 2.5 mi SE 12.7 mph - N/A   Partly Cloudy
9:13 PM 28.0 °F 18.1 °F 28.0 °F 100% 30.06 in 1.0 mi SE 11.5 mph - N/A   Mist
9:20 PM 28.0 °F 17.5 °F 28.0 °F 100% 30.06 in 0.2 mi SE 12.7 mph - N/A Fog Light Freezing Fog
9:53 PM 28.0 °F 20.0 °F 28.0 °F 100% 30.10 in 0.2 mi SE 8.1 mph - N/A Fog Light Freezing Fog
10:53 PM 28.9 °F 21.9 °F 28.9 °F 100% 30.11 in 0.2 mi SE 6.9 mph - 0.00 in Fog Light Freezing Fog
11:53 PM 28.9 °F 20.4 °F 28.9 °F 100% 30.11 in 0.2 mi ESE 9.2 mph - N/A Fog Light Freezing Fog